Edinburg, TX

3:06 AM CDT on May 27, 2017 (GMT -0500)
Edinburg

Weather History for KEBG - March, 2012

Change the Weather History Date:

Sunday, March 18, 2012

  Actual Average (KMFE) Record (KMFE)
Temperature  
Mean Temperature 80 °F -  
Max Temperature 87 °F 77 °F 100 °F (2013)
Min Temperature 72 °F 58 °F 42 °F (1969)
Cooling Degree Days 14    
Growing Degree Days 30 (Base 50)    
Moisture  
Dew Point 68 °F    
Average Humidity 72    
Maximum Humidity 90    
Minimum Humidity 44    
Precipitation  
Precipitation 0.00 in - - ()
Sea Level Pressure  
Sea Level Pressure 29.92 in    
Wind  
Wind Speed 13 mph (SE)    
Max Wind Speed 22 mph    
Max Gust Speed 30 mph    
Visibility 7 miles    
Events      
Averages and records for this station are not official NWS values.
T = Trace of Precipitation, MM = Missing Value Source: NWS Daily Summary

Daily Weather History Graph

Daily Weather History Graph

Search for Another Location

Airport or City:

Trip Planner

Search our weather history database for the weather conditions in past years. The results will help you decide how hot, cold, wet, or windy it might be!

Date:

Astronomy

Mar. 18, 2012 Rise Set
Actual Time 7:38 AM CDT 7:43 PM CDT
Civil Twilight 7:14 AM CDT 8:06 PM CDT
Nautical Twilight 6:48 AM CDT 8:33 PM CDT
Astronomical Twilight 6:21 AM CDT 9:00 PM CDT
Moon 4:58 AM CDT (3/18) 4:28 PM CDT (3/18)
Length of Visible Light 12h 51m
Length of Day
12h 05m
Waning Crescent, 15% of the Moon is Illuminated
Mar 18
Waning Crescent
Mar 22
New
Mar 30
First Quarter
Apr 6
Full
Apr 13
Last Quarter

Hourly Weather History & Observations

Time (CDT) Temp. Heat Index Dew Point Humidity Pressure Visibility Wind Dir Wind Speed Gust Speed Precip Events Conditions
12:15 AM 72.9 °F - 68.0 °F 85% 29.97 in 7.0 mi SE 13.8 mph - N/A   Clear
12:35 AM 72.7 °F - 68.2 °F 86% 29.96 in 7.0 mi SE 13.8 mph - N/A   Clear
12:55 AM 72.5 °F - 68.2 °F 86% 29.96 in 7.0 mi SE 13.8 mph 19.6 mph N/A   Clear
1:15 AM 72.3 °F - 68.4 °F 87% 29.96 in 7.0 mi SE 11.5 mph - N/A   Scattered Clouds
1:35 AM 72.5 °F - 68.7 °F 88% 29.94 in 7.0 mi ESE 13.8 mph - N/A   Clear
1:55 AM 72.5 °F - 68.9 °F 88% 29.96 in 7.0 mi SE 9.2 mph 16.1 mph N/A   Scattered Clouds
2:15 AM 72.9 °F - 69.1 °F 88% 29.96 in 7.0 mi SSE 6.9 mph - N/A   Overcast
2:35 AM 73.2 °F - 69.3 °F 87% 29.96 in 7.0 mi SE 10.4 mph - N/A   Overcast
2:55 AM 73.6 °F - 69.4 °F 87% 29.96 in 7.0 mi SE 8.1 mph - N/A   Overcast
3:15 AM 74.1 °F - 69.8 °F 86% 29.96 in 7.0 mi SE 9.2 mph - N/A   Overcast
3:35 AM 74.3 °F - 69.8 °F 86% 29.96 in 7.0 mi SE 6.9 mph - N/A   Overcast
3:55 AM 74.3 °F - 69.8 °F 86% 29.96 in 7.0 mi SSE 4.6 mph - N/A   Overcast
4:15 AM 74.3 °F - 69.4 °F 85% 29.95 in 7.0 mi SSE 8.1 mph - N/A   Overcast
4:35 AM 74.1 °F - 69.3 °F 85% 29.94 in 7.0 mi SE 5.8 mph - N/A   Mostly Cloudy
4:55 AM 73.8 °F - 69.4 °F 86% 29.94 in 7.0 mi ESE 5.8 mph - N/A   Overcast
5:15 AM 73.2 °F - 69.3 °F 87% 29.93 in 5.0 mi SE 6.9 mph - N/A   Mostly Cloudy
5:35 AM 72.7 °F - 69.1 °F 88% 29.92 in 5.0 mi ESE 6.9 mph - N/A   Scattered Clouds
5:55 AM 72.7 °F - 69.3 °F 89% 29.91 in 5.0 mi ESE 8.1 mph - N/A   Clear
6:15 AM 72.9 °F - 69.6 °F 90% 29.91 in 5.0 mi ESE 9.2 mph - N/A   Scattered Clouds
6:55 AM 73.9 °F - 70.2 °F 88% 29.92 in 5.0 mi SE 9.2 mph - N/A   Overcast
7:15 AM 74.1 °F - 70.0 °F 87% 29.92 in 5.0 mi SE 10.4 mph 16.1 mph N/A   Overcast
7:35 AM 74.3 °F - 70.0 °F 86% 29.93 in 5.0 mi SE 10.4 mph - N/A   Overcast
7:55 AM 74.3 °F - 70.0 °F 86% 29.93 in 4.0 mi SE 10.4 mph - N/A   Overcast
8:15 AM 74.5 °F - 70.0 °F 86% 29.94 in 4.0 mi SE 11.5 mph - N/A   Haze
8:35 AM 74.8 °F - 70.0 °F 85% 29.94 in 4.0 mi SSE 12.7 mph 19.6 mph N/A   Haze
8:55 AM 75.7 °F - 70.0 °F 82% 29.95 in 4.0 mi SSE 10.4 mph 17.3 mph N/A   Haze
9:15 AM 76.3 °F - 69.8 °F 80% 29.96 in 5.0 mi SSE 11.5 mph 17.3 mph N/A   Haze
9:35 AM 76.6 °F - 69.8 °F 79% 29.96 in 5.0 mi SE 13.8 mph 18.4 mph N/A   Haze
9:55 AM 77.2 °F - 69.6 °F 77% 29.96 in 5.0 mi SE 15.0 mph - N/A   Haze
10:15 AM 77.5 °F - 69.3 °F 76% 29.97 in 5.0 mi SSE 18.4 mph 23.0 mph N/A   Haze
10:35 AM 78.6 °F - 68.9 °F 72% 29.97 in 5.0 mi SSE 18.4 mph 23.0 mph N/A   Haze
10:55 AM 80.2 °F 83.0 °F 68.4 °F 67% 29.97 in 7.0 mi SSE 15.0 mph 25.3 mph N/A   Mostly Cloudy
11:15 AM 80.6 °F 83.2 °F 68.0 °F 65% 29.97 in 10.0 mi SSE 18.4 mph 28.8 mph N/A   Scattered Clouds
11:35 AM 82.2 °F 84.9 °F 67.5 °F 61% 29.98 in 7.0 mi SSE 19.6 mph 25.3 mph N/A   Scattered Clouds
11:55 AM 82.9 °F 85.6 °F 67.1 °F 59% 29.98 in 7.0 mi SSE 20.7 mph 27.6 mph N/A   Mostly Cloudy
12:15 PM 83.1 °F 85.7 °F 66.9 °F 58% 29.97 in 5.0 mi SSE 18.4 mph 25.3 mph N/A   Haze
12:35 PM 83.7 °F 86.0 °F 66.6 °F 56% 29.97 in 5.0 mi SSE 20.7 mph 28.8 mph N/A   Haze
12:55 PM 83.8 °F 86.0 °F 66.0 °F 55% 29.96 in 7.0 mi South 17.3 mph - N/A   Mostly Cloudy
1:15 PM 84.6 °F 86.6 °F 65.8 °F 53% 29.94 in 7.0 mi SSE 19.6 mph 24.2 mph N/A   Mostly Cloudy
1:35 PM 85.1 °F 87.1 °F 65.8 °F 52% 29.93 in 5.0 mi SSE 17.3 mph 25.3 mph N/A   Haze
1:55 PM 86.2 °F 88.2 °F 65.5 °F 50% 29.92 in 7.0 mi SSE 20.7 mph 29.9 mph N/A   Mostly Cloudy
2:35 PM 86.0 °F 87.9 °F 65.3 °F 50% 29.90 in 7.0 mi SSE 18.4 mph 27.6 mph N/A   Scattered Clouds
2:55 PM 85.1 °F 86.9 °F 65.1 °F 51% 29.89 in 7.0 mi SSE 20.7 mph 27.6 mph N/A   Mostly Cloudy
3:15 PM 85.1 °F 86.6 °F 64.8 °F 50% 29.88 in 7.0 mi SSE 18.4 mph 25.3 mph N/A   Mostly Cloudy
3:35 PM 86.2 °F 87.6 °F 64.2 °F 48% 29.86 in 7.0 mi SE 18.4 mph 27.6 mph N/A   Scattered Clouds
3:55 PM 87.1 °F 88.0 °F 63.1 °F 45% 29.86 in 7.0 mi SSE 21.9 mph 28.8 mph N/A   Scattered Clouds
4:15 PM 86.4 °F 86.8 °F 61.9 °F 44% 29.85 in 7.0 mi SE 19.6 mph 26.5 mph N/A   Clear
5:15 PM 84.4 °F 85.2 °F 63.0 °F 48% 29.85 in 7.0 mi SSE 13.8 mph 23.0 mph N/A   Clear
5:35 PM 84.2 °F 85.4 °F 63.5 °F 50% 29.86 in 7.0 mi SSE 17.3 mph 25.3 mph N/A   Clear
5:55 PM 83.7 °F 85.1 °F 64.2 °F 52% 29.85 in 7.0 mi SSE 11.5 mph 19.6 mph N/A   Scattered Clouds
6:35 PM 82.8 °F 84.2 °F 63.9 °F 53% 29.85 in 7.0 mi SSE 10.4 mph 18.4 mph N/A   Clear
6:55 PM 82.0 °F 83.9 °F 65.3 °F 57% 29.85 in 10.0 mi SE 17.3 mph 21.9 mph N/A   Scattered Clouds
7:15 PM 81.0 °F 83.0 °F 65.8 °F 60% 29.86 in 10.0 mi SSE 15.0 mph 19.6 mph N/A   Clear
7:35 PM 80.2 °F 82.3 °F 66.2 °F 62% 29.86 in 10.0 mi SSE 11.5 mph 18.4 mph N/A   Clear
7:55 PM 79.5 °F - 66.6 °F 64% 29.87 in 10.0 mi SE 11.5 mph 16.1 mph N/A   Clear
8:15 PM 79.0 °F - 67.1 °F 67% 29.87 in 10.0 mi SE 12.7 mph 17.3 mph N/A   Clear
8:35 PM 78.8 °F - 67.8 °F 69% 29.88 in 10.0 mi SE 12.7 mph - N/A   Clear
8:55 PM 78.3 °F - 68.2 °F 71% 29.88 in 10.0 mi SE 16.1 mph - N/A   Clear
9:15 PM 78.1 °F - 68.5 °F 72% 29.86 in 10.0 mi SE 21.9 mph - N/A   Clear
9:35 PM 77.4 °F - 69.1 °F 76% 29.87 in 10.0 mi SE 15.0 mph 21.9 mph N/A   Scattered Clouds
9:55 PM 77.0 °F - 69.4 °F 77% 29.87 in 10.0 mi SE 17.3 mph 23.0 mph N/A   Scattered Clouds
10:15 PM 77.0 °F - 69.6 °F 78% 29.87 in 10.0 mi SE 18.4 mph 25.3 mph N/A   Scattered Clouds
10:35 PM 76.8 °F - 70.0 °F 79% 29.87 in 10.0 mi SE 16.1 mph 23.0 mph N/A   Clear
10:55 PM 76.6 °F - 70.2 °F 80% 29.86 in 10.0 mi SE 20.7 mph 25.3 mph N/A   Clear
11:15 PM 76.6 °F - 70.2 °F 80% 29.85 in 10.0 mi SE 20.7 mph 28.8 mph N/A   Scattered Clouds
11:35 PM 76.6 °F - 70.3 °F 81% 29.85 in 10.0 mi SE 23.0 mph 29.9 mph N/A   Scattered Clouds
11:55 PM 77.0 °F - 70.7 °F 81% 29.86 in 7.0 mi SE 21.9 mph 32.2 mph N/A   Mostly Cloudy